contact:dominique.lefevre@mio.osupytheas.fr, maurice.libes@osupytheas.fr, didier.mallarino@osupytheas.fr
Project:EMSO http://www.emso-fr.org/EMSO-France
Depth: 2436.0 m
Title:EMSO Ligure Ouest : Data MII capteur CSTAR
DateTime,Latitude,Longitude,Instrument_Serial,Reference_Counts,Signal_Counts,Corrected_Signal_raw_counts,Calculated_Beam_c_inverse_meters,Internal_thermistor_counts
DateTime,Latitude,Longitude,Instrument_Serial,Reference_Counts,Signal_Counts,Corrected_Signal_raw_counts,Calculated_Beam_c_inverse_meters,Internal_thermistor_counts
2024-04-30T00:02:44,42.805,6.029,CST-1368DR,4091,4225,10943,01.422,553
2024-04-30T00:05:45,42.805,6.029,CST-1368DR,4091,4225,10943,01.422,553
2024-04-30T00:08:47,42.805,6.029,CST-1368DR,4091,4226,10945,01.422,553
2024-04-30T00:11:48,42.805,6.029,CST-1368DR,4091,4227,10947,01.421,553
2024-04-30T00:14:50,42.805,6.029,CST-1368DR,4091,4225,10943,01.422,553
2024-04-30T00:17:52,42.805,6.029,CST-1368DR,4091,4224,10939,01.424,553
2024-04-30T00:20:53,42.805,6.029,CST-1368DR,4091,4226,10944,01.422,553
2024-04-30T00:23:55,42.805,6.029,CST-1368DR,4091,4226,10945,01.422,553
2024-04-30T00:26:56,42.805,6.029,CST-1368DR,4091,4226,10946,01.421,553
2024-04-30T00:29:58,42.805,6.029,CST-1368DR,4091,4226,10946,01.421,553
2024-04-30T00:32:59,42.805,6.029,CST-1368DR,4091,4230,10956,01.418,553
2024-04-30T00:36:01,42.805,6.029,CST-1368DR,4091,4226,10946,01.421,553
2024-04-30T00:39:03,42.805,6.029,CST-1368DR,4091,4227,10947,01.421,553
2024-04-30T00:42:04,42.805,6.029,CST-1368DR,4091,4225,10943,01.422,553
2024-04-30T00:45:06,42.805,6.029,CST-1368DR,4091,4224,10940,01.423,553
2024-04-30T00:48:07,42.805,6.029,CST-1368DR,4091,4222,10936,01.425,553
2024-04-30T00:51:09,42.805,6.029,CST-1368DR,4091,4225,10943,01.422,553
2024-04-30T00:54:11,42.805,6.029,CST-1368DR,4091,4226,10945,01.422,553
2024-04-30T00:57:12,42.805,6.029,CST-1368DR,4091,4224,10939,01.424,553
2024-04-30T01:00:14,42.805,6.029,CST-1368DR,4091,4228,10949,01.420,553
2024-04-30T01:03:15,42.805,6.029,CST-1368DR,4091,4221,10931,01.427,553
2024-04-30T01:06:17,42.805,6.029,CST-1368DR,4091,4224,10939,01.424,553
2024-04-30T01:09:18,42.805,6.029,CST-1368DR,4091,4224,10939,01.424,553
2024-04-30T01:12:20,42.805,6.029,CST-1368DR,4091,4225,10941,01.423,553
2024-04-30T01:15:22,42.805,6.029,CST-1368DR,4091,4225,10941,01.423,553
2024-04-30T01:18:23,42.805,6.029,CST-1368DR,4091,4224,10939,01.424,553
2024-04-30T01:21:25,42.805,6.029,CST-1368DR,4091,4225,10941,01.423,553
2024-04-30T01:24:26,42.805,6.029,CST-1368DR,4091,4224,10941,01.423,553
2024-04-30T01:27:28,42.805,6.029,CST-1368DR,4091,4225,10941,01.423,553
2024-04-30T01:30:29,42.805,6.029,CST-1368DR,4091,4223,10937,01.425,553
2024-04-30T01:33:31,42.805,6.029,CST-1368DR,4091,4226,10945,01.422,553
2024-04-30T01:36:33,42.805,6.029,CST-1368DR,4091,4226,10945,01.422,553
2024-04-30T01:39:34,42.805,6.029,CST-1368DR,4091,4227,10948,01.421,553
2024-04-30T01:42:36,42.805,6.029,CST-1368DR,4091,4224,10939,01.424,553
2024-04-30T01:45:37,42.805,6.029,CST-1368DR,4091,4225,10943,01.422,553
2024-04-30T01:48:39,42.805,6.029,CST-1368DR,4091,4226,10944,01.422,553
2024-04-30T01:51:41,42.805,6.029,CST-1368DR,4091,4219,10928,01.428,553
2024-04-30T01:54:42,42.805,6.029,CST-1368DR,4091,4226,10946,01.421,553
2024-04-30T01:57:44,42.805,6.029,CST-1368DR,4091,4224,10941,01.423,553
2024-04-30T02:00:45,42.805,6.029,CST-1368DR,4091,4225,10943,01.422,553
2024-04-30T02:03:47,42.805,6.029,CST-1368DR,4091,4222,10935,01.425,553
2024-04-30T02:06:48,42.805,6.029,CST-1368DR,4091,4223,10937,01.425,553
2024-04-30T02:09:50,42.805,6.029,CST-1368DR,4091,4226,10945,01.422,553
2024-04-30T02:12:52,42.805,6.029,CST-1368DR,4091,4220,10929,01.428,553
2024-04-30T02:15:53,42.805,6.029,CST-1368DR,4091,4219,10928,01.428,553
2024-04-30T02:18:55,42.805,6.029,CST-1368DR,4091,4218,10924,01.429,553
2024-04-30T02:21:56,42.805,6.029,CST-1368DR,4091,4223,10937,01.425,553
2024-04-30T02:24:58,42.805,6.029,CST-1368DR,4091,4220,10930,01.427,553
2024-04-30T02:27:59,42.805,6.029,CST-1368DR,4091,4223,10936,01.425,553
2024-04-30T02:31:01,42.805,6.029,CST-1368DR,4091,4223,10937,01.425,553
2024-04-30T02:34:03,42.805,6.029,CST-1368DR,4091,4224,10939,01.424,553
2024-04-30T02:37:04,42.805,6.029,CST-1368DR,4091,4222,10935,01.425,553
2024-04-30T02:40:06,42.805,6.029,CST-1368DR,4091,4218,10924,01.429,553
2024-04-30T02:43:07,42.805,6.029,CST-1368DR,4091,4221,10932,01.426,553
2024-04-30T02:46:09,42.805,6.029,CST-1368DR,4091,4222,10934,01.426,553
2024-04-30T02:49:10,42.805,6.029,CST-1368DR,4091,4221,10932,01.426,553
2024-04-30T02:52:12,42.805,6.029,CST-1368DR,4091,4222,10935,01.425,553
2024-04-30T02:55:14,42.805,6.029,CST-1368DR,4091,4220,10929,01.428,553
2024-04-30T02:58:15,42.805,6.029,CST-1368DR,4091,4222,10935,01.425,553
2024-04-30T03:01:17,42.805,6.029,CST-1368DR,4091,4220,10930,01.427,553
2024-04-30T03:04:18,42.805,6.029,CST-1368DR,4091,4221,10932,01.426,553
2024-04-30T03:07:20,42.805,6.029,CST-1368DR,4091,4220,10930,01.427,553
2024-04-30T03:10:22,42.805,6.029,CST-1368DR,4091,4221,10932,01.426,553
2024-04-30T03:13:23,42.805,6.029,CST-1368DR,4091,4219,10926,01.429,553
2024-04-30T03:16:25,42.805,6.029,CST-1368DR,4090,4220,10932,01.426,553
2024-04-30T03:19:26,42.805,6.029,CST-1368DR,4091,4219,10926,01.429,553
2024-04-30T03:22:28,42.805,6.029,CST-1368DR,4091,4219,10928,01.428,553
2024-04-30T03:25:29,42.805,6.029,CST-1368DR,4090,4219,10930,01.427,553
2024-04-30T03:28:31,42.805,6.029,CST-1368DR,4090,4218,10926,01.429,553
2024-04-30T03:31:33,42.805,6.029,CST-1368DR,4091,4218,10924,01.429,553
2024-04-30T03:34:34,42.805,6.029,CST-1368DR,4090,4220,10932,01.426,553
2024-04-30T03:37:36,42.805,6.029,CST-1368DR,4091,4222,10936,01.425,553
2024-04-30T03:40:37,42.805,6.029,CST-1368DR,4091,4221,10933,01.426,553
2024-04-30T03:43:39,42.805,6.029,CST-1368DR,4091,4219,10928,01.428,553
2024-04-30T03:46:40,42.805,6.029,CST-1368DR,4090,4219,10930,01.427,553
2024-04-30T03:49:42,42.805,6.029,CST-1368DR,4091,4220,10930,01.427,553
2024-04-30T03:52:44,42.805,6.029,CST-1368DR,4090,4221,10934,01.426,553
2024-04-30T03:55:45,42.805,6.029,CST-1368DR,4090,4219,10930,01.427,553
2024-04-30T03:58:47,42.805,6.029,CST-1368DR,4090,4222,10937,01.425,553
2024-04-30T04:01:48,42.805,6.029,CST-1368DR,4091,4222,10934,01.426,553
2024-04-30T04:04:50,42.805,6.029,CST-1368DR,4091,4221,10932,01.426,553
2024-04-30T04:07:52,42.805,6.029,CST-1368DR,4090,4222,10937,01.425,553
2024-04-30T04:10:53,42.805,6.029,CST-1368DR,4090,4221,10934,01.426,553
2024-04-30T04:13:55,42.805,6.029,CST-1368DR,4091,4221,10933,01.426,553
2024-04-30T04:16:56,42.805,6.029,CST-1368DR,4090,4221,10934,01.426,553
2024-04-30T04:19:58,42.805,6.029,CST-1368DR,4090,4220,10932,01.426,553
2024-04-30T04:22:59,42.805,6.029,CST-1368DR,4090,4222,10937,01.425,553
2024-04-30T04:26:01,42.805,6.029,CST-1368DR,4090,4219,10928,01.428,553
2024-04-30T04:29:03,42.805,6.029,CST-1368DR,4090,4221,10934,01.426,553
2024-04-30T04:32:04,42.805,6.029,CST-1368DR,4090,4221,10934,01.426,553
2024-04-30T04:35:06,42.805,6.029,CST-1368DR,4090,4221,10935,01.425,553
2024-04-30T04:38:07,42.805,6.029,CST-1368DR,4090,4221,10934,01.426,553
2024-04-30T04:41:09,42.805,6.029,CST-1368DR,4090,4221,10935,01.425,553
2024-04-30T04:44:11,42.805,6.029,CST-1368DR,4090,4220,10932,01.426,553
2024-04-30T04:47:12,42.805,6.029,CST-1368DR,4090,4219,10929,01.428,553
2024-04-30T04:50:14,42.805,6.029,CST-1368DR,4090,4221,10934,01.426,553
2024-04-30T04:53:15,42.805,6.029,CST-1368DR,4090,4222,10937,01.425,553
2024-04-30T04:56:17,42.805,6.029,CST-1368DR,4090,4221,10934,01.426,553
2024-04-30T04:59:18,42.805,6.029,CST-1368DR,4090,4220,10931,01.427,553
2024-04-30T05:02:20,42.805,6.029,CST-1368DR,4090,4221,10934,01.426,553
2024-04-30T05:05:22,42.805,6.029,CST-1368DR,4090,4222,10937,01.425,553
2024-04-30T05:08:23,42.805,6.029,CST-1368DR,4090,4222,10937,01.425,553
2024-04-30T05:11:25,42.805,6.029,CST-1368DR,4090,4224,10941,01.423,553
2024-04-30T05:14:26,42.805,6.029,CST-1368DR,4090,4223,10941,01.423,553
2024-04-30T05:17:28,42.805,6.029,CST-1368DR,4090,4223,10940,01.423,553
2024-04-30T05:20:29,42.805,6.029,CST-1368DR,4090,4223,10941,01.423,553
2024-04-30T05:23:31,42.805,6.029,CST-1368DR,4090,4223,10939,01.424,553
2024-04-30T05:26:33,42.805,6.029,CST-1368DR,4090,4222,10938,01.424,553
2024-04-30T05:29:34,42.805,6.029,CST-1368DR,4090,4222,10938,01.424,553
2024-04-30T05:32:36,42.805,6.029,CST-1368DR,4090,4221,10936,01.425,553
2024-04-30T05:35:37,42.805,6.029,CST-1368DR,4090,4230,10958,01.417,553
2024-04-30T05:38:39,42.805,6.029,CST-1368DR,4090,4223,10939,01.424,553
2024-04-30T05:41:41,42.805,6.029,CST-1368DR,4090,4223,10941,01.423,553
2024-04-30T05:44:42,42.805,6.029,CST-1368DR,4090,4224,10941,01.423,553
2024-04-30T05:47:44,42.805,6.029,CST-1368DR,4090,4221,10934,01.426,553
2024-04-30T05:50:45,42.805,6.029,CST-1368DR,4090,4223,10939,01.424,553
2024-04-30T05:53:47,42.805,6.029,CST-1368DR,4090,4221,10935,01.425,553
2024-04-30T05:56:48,42.805,6.029,CST-1368DR,4090,4223,10940,01.423,553
2024-04-30T05:59:50,42.805,6.029,CST-1368DR,4090,4223,10939,01.424,553
2024-04-30T06:02:52,42.805,6.029,CST-1368DR,4090,4223,10940,01.423,553
2024-04-30T06:05:53,42.805,6.029,CST-1368DR,4090,4221,10936,01.425,553
2024-04-30T06:08:55,42.805,6.029,CST-1368DR,4090,4224,10943,01.422,553
2024-04-30T06:11:56,42.805,6.029,CST-1368DR,4090,4223,10939,01.424,553
2024-04-30T06:14:58,42.805,6.029,CST-1368DR,4090,4221,10935,01.425,553
2024-04-30T06:17:59,42.805,6.029,CST-1368DR,4090,4223,10940,01.423,553
2024-04-30T06:21:01,42.805,6.029,CST-1368DR,4090,4223,10939,01.424,553
2024-04-30T06:24:03,42.805,6.029,CST-1368DR,4090,4223,10939,01.424,553
2024-04-30T06:27:04,42.805,6.029,CST-1368DR,4090,4221,10934,01.426,553
2024-04-30T06:30:06,42.805,6.029,CST-1368DR,4090,4222,10937,01.425,553
2024-04-30T06:33:07,42.805,6.029,CST-1368DR,4090,4220,10932,01.426,553
2024-04-30T06:36:09,42.805,6.029,CST-1368DR,4090,4221,10934,01.426,553
2024-04-30T06:39:11,42.805,6.029,CST-1368DR,4090,4220,10931,01.427,553
2024-04-30T06:42:12,42.805,6.029,CST-1368DR,4090,4221,10934,01.426,553
2024-04-30T06:45:14,42.805,6.029,CST-1368DR,4090,4221,10934,01.426,553
2024-04-30T06:48:15,42.805,6.029,CST-1368DR,4090,4220,10931,01.427,553
2024-04-30T06:51:17,42.805,6.029,CST-1368DR,4090,4195,10868,01.450,553
2024-04-30T06:54:18,42.805,6.029,CST-1368DR,4090,4220,10931,01.427,553
2024-04-30T06:57:20,42.805,6.029,CST-1368DR,4090,4220,10932,01.426,553
2024-04-30T07:00:22,42.805,6.029,CST-1368DR,4090,4219,10929,01.428,553
2024-04-30T07:03:23,42.805,6.029,CST-1368DR,4090,4217,10925,01.429,553
2024-04-30T07:06:25,42.805,6.029,CST-1368DR,4090,4220,10933,01.426,553
2024-04-30T07:09:26,42.805,6.029,CST-1368DR,4090,4219,10928,01.428,553
2024-04-30T07:12:28,42.805,6.029,CST-1368DR,4090,4215,10918,01.432,553
2024-04-30T07:15:29,42.805,6.029,CST-1368DR,4090,4214,10916,01.432,553
2024-04-30T07:18:31,42.805,6.029,CST-1368DR,4090,4215,10918,01.432,553
2024-04-30T07:21:33,42.805,6.029,CST-1368DR,4090,4215,10919,01.431,553
2024-04-30T07:24:34,42.805,6.029,CST-1368DR,4090,4218,10928,01.428,553
2024-04-30T07:27:36,42.805,6.029,CST-1368DR,4090,4218,10928,01.428,553
2024-04-30T07:30:37,42.805,6.029,CST-1368DR,4090,4218,10926,01.429,553
2024-04-30T07:33:39,42.805,6.029,CST-1368DR,4090,4218,10928,01.428,553
2024-04-30T07:36:41,42.805,6.029,CST-1368DR,4090,4219,10929,01.428,553
2024-04-30T07:39:42,42.805,6.029,CST-1368DR,4090,4217,10923,01.430,553
2024-04-30T07:42:44,42.805,6.029,CST-1368DR,4090,4218,10926,01.429,553
2024-04-30T07:45:45,42.805,6.029,CST-1368DR,4090,4219,10930,01.427,553
2024-04-30T07:48:47,42.805,6.029,CST-1368DR,4090,4218,10928,01.428,553
2024-04-30T07:51:48,42.805,6.029,CST-1368DR,4090,4217,10925,01.429,553
2024-04-30T07:54:50,42.805,6.029,CST-1368DR,4090,4219,10928,01.428,553
2024-04-30T07:57:52,42.805,6.029,CST-1368DR,4090,4220,10931,01.427,553
2024-04-30T08:00:53,42.805,6.029,CST-1368DR,4090,4220,10931,01.427,553
2024-04-30T08:03:55,42.805,6.029,CST-1368DR,4090,4223,10939,01.424,553
2024-04-30T08:06:56,42.805,6.029,CST-1368DR,4090,4221,10934,01.426,553
2024-04-30T08:09:58,42.805,6.029,CST-1368DR,4090,4217,10924,01.429,553
2024-04-30T08:12:59,42.805,6.029,CST-1368DR,4090,4219,10928,01.428,553
2024-04-30T08:16:01,42.805,6.029,CST-1368DR,4090,4222,10937,01.425,553
2024-04-30T08:19:03,42.805,6.029,CST-1368DR,4090,4220,10931,01.427,553
2024-04-30T08:22:04,42.805,6.029,CST-1368DR,4090,4218,10926,01.429,553
2024-04-30T08:25:06,42.805,6.029,CST-1368DR,4090,4220,10933,01.426,553
2024-04-30T08:28:07,42.805,6.029,CST-1368DR,4090,4219,10930,01.427,553
2024-04-30T08:31:09,42.805,6.029,CST-1368DR,4090,4219,10929,01.428,553
2024-04-30T08:34:11,42.805,6.029,CST-1368DR,4090,4222,10937,01.425,553
2024-04-30T08:37:12,42.805,6.029,CST-1368DR,4090,4221,10934,01.426,553
2024-04-30T08:40:14,42.805,6.029,CST-1368DR,4090,4221,10936,01.425,553
2024-04-30T08:43:15,42.805,6.029,CST-1368DR,4090,4220,10933,01.426,553
2024-04-30T08:46:17,42.805,6.029,CST-1368DR,4090,4220,10933,01.426,553
2024-04-30T08:49:18,42.805,6.029,CST-1368DR,4090,4221,10934,01.426,553
2024-04-30T08:52:20,42.805,6.029,CST-1368DR,4090,4219,10930,01.427,553
2024-04-30T08:55:22,42.805,6.029,CST-1368DR,4090,4219,10930,01.427,553
2024-04-30T08:58:23,42.805,6.029,CST-1368DR,4090,4220,10933,01.426,553
2024-04-30T09:01:25,42.805,6.029,CST-1368DR,4090,4221,10935,01.425,553
2024-04-30T09:04:26,42.805,6.029,CST-1368DR,4090,4221,10935,01.425,553
2024-04-30T09:07:28,42.805,6.029,CST-1368DR,4090,4220,10932,01.426,553
2024-04-30T09:10:29,42.805,6.029,CST-1368DR,4090,4221,10934,01.426,553
2024-04-30T09:13:31,42.805,6.029,CST-1368DR,4090,4220,10933,01.426,553
2024-04-30T09:16:33,42.805,6.029,CST-1368DR,4090,4221,10935,01.425,553
2024-04-30T09:19:34,42.805,6.029,CST-1368DR,4090,4221,10934,01.426,553
2024-04-30T09:22:36,42.805,6.029,CST-1368DR,4090,4221,10934,01.426,553
2024-04-30T09:25:37,42.805,6.029,CST-1368DR,4090,4220,10932,01.426,553
2024-04-30T09:28:39,42.805,6.029,CST-1368DR,4090,4180,10829,01.464,553
2024-04-30T09:31:41,42.805,6.029,CST-1368DR,4090,4219,10930,01.427,553
2024-04-30T09:34:42,42.805,6.029,CST-1368DR,4090,4220,10932,01.426,553
2024-04-30T09:37:44,42.805,6.029,CST-1368DR,4090,4219,10929,01.428,553
2024-04-30T09:40:45,42.805,6.029,CST-1368DR,4090,4219,10928,01.428,553
2024-04-30T09:43:47,42.805,6.029,CST-1368DR,4090,4219,10928,01.428,553
2024-04-30T09:46:48,42.805,6.029,CST-1368DR,4090,4220,10933,01.426,553
2024-04-30T09:49:50,42.805,6.029,CST-1368DR,4090,4220,10932,01.426,553
2024-04-30T09:52:52,42.805,6.029,CST-1368DR,4090,4221,10936,01.425,553
2024-04-30T09:55:53,42.805,6.029,CST-1368DR,4090,4220,10931,01.427,553
2024-04-30T09:58:55,42.805,6.029,CST-1368DR,4090,4219,10930,01.427,553
2024-04-30T10:01:57,42.805,6.029,CST-1368DR,4090,4220,10931,01.427,553
2024-04-30T10:04:59,42.805,6.029,CST-1368DR,4090,4220,10932,01.426,553
2024-04-30T10:08:00,42.805,6.029,CST-1368DR,4090,4221,10934,01.426,553
2024-04-30T10:11:02,42.805,6.029,CST-1368DR,4090,4221,10935,01.425,553
2024-04-30T10:14:03,42.805,6.029,CST-1368DR,4090,4220,10932,01.426,553
2024-04-30T10:17:05,42.805,6.029,CST-1368DR,4090,4221,10934,01.426,553
2024-04-30T10:20:06,42.805,6.029,CST-1368DR,4090,4221,10934,01.426,553
2024-04-30T10:23:08,42.805,6.029,CST-1368DR,4090,4220,10931,01.427,553
2024-04-30T10:26:10,42.805,6.029,CST-1368DR,4090,4220,10932,01.426,553
2024-04-30T10:29:11,42.805,6.029,CST-1368DR,4090,4220,10931,01.427,553
2024-04-30T10:32:13,42.805,6.029,CST-1368DR,4090,4219,10930,01.427,553
2024-04-30T10:35:14,42.805,6.029,CST-1368DR,4090,4220,10932,01.426,553
2024-04-30T10:38:16,42.805,6.029,CST-1368DR,4090,4220,10932,01.426,553
2024-04-30T10:41:18,42.805,6.029,CST-1368DR,4090,4221,10934,01.426,553
2024-04-30T10:44:19,42.805,6.029,CST-1368DR,4090,4221,10936,01.425,553
2024-04-30T10:47:21,42.805,6.029,CST-1368DR,4090,4221,10934,01.426,553
2024-04-30T10:50:22,42.805,6.029,CST-1368DR,4090,4221,10934,01.426,553
2024-04-30T10:53:24,42.805,6.029,CST-1368DR,4090,4221,10934,01.426,553
2024-04-30T10:56:25,42.805,6.029,CST-1368DR,4090,4222,10937,01.425,553
2024-04-30T10:59:27,42.805,6.029,CST-1368DR,4090,4223,10939,01.424,553
2024-04-30T11:02:29,42.805,6.029,CST-1368DR,4090,4220,10931,01.427,553
2024-04-30T11:05:30,42.805,6.029,CST-1368DR,4090,4222,10937,01.425,553
2024-04-30T11:08:32,42.805,6.029,CST-1368DR,4090,4221,10934,01.426,553
2024-04-30T11:11:33,42.805,6.029,CST-1368DR,4090,4220,10932,01.426,553
2024-04-30T11:14:35,42.805,6.029,CST-1368DR,4090,4216,10921,01.430,553
2024-04-30T11:17:37,42.805,6.029,CST-1368DR,4090,4217,10923,01.430,553
2024-04-30T11:20:38,42.805,6.029,CST-1368DR,4090,4219,10930,01.427,553
2024-04-30T11:23:40,42.805,6.029,CST-1368DR,4090,4218,10926,01.429,553
2024-04-30T11:26:41,42.805,6.029,CST-1368DR,4090,4218,10928,01.428,553
2024-04-30T11:29:43,42.805,6.029,CST-1368DR,4090,4220,10932,01.426,553
2024-04-30T11:32:44,42.805,6.029,CST-1368DR,4090,4221,10934,01.426,553
2024-04-30T11:35:46,42.805,6.029,CST-1368DR,4090,4215,10919,01.431,553
2024-04-30T11:38:48,42.805,6.029,CST-1368DR,4090,4217,10924,01.429,553
2024-04-30T11:41:49,42.805,6.029,CST-1368DR,4090,4221,10934,01.426,553
2024-04-30T11:44:51,42.805,6.029,CST-1368DR,4090,4216,10922,01.430,553
2024-04-30T11:47:52,42.805,6.029,CST-1368DR,4090,4208,10901,01.438,553
2024-04-30T11:50:54,42.805,6.029,CST-1368DR,4090,4219,10928,01.428,553
2024-04-30T11:53:55,42.805,6.029,CST-1368DR,4090,4212,10912,01.434,553
2024-04-30T11:56:57,42.805,6.029,CST-1368DR,4090,4219,10930,01.427,553
2024-04-30T11:59:59,42.805,6.029,CST-1368DR,4090,4213,10914,01.433,553
2024-04-30T12:03:00,42.805,6.029,CST-1368DR,4090,4215,10919,01.431,553
2024-04-30T12:06:02,42.805,6.029,CST-1368DR,4090,4213,10913,01.433,553
2024-04-30T12:09:03,42.805,6.029,CST-1368DR,4090,4215,10919,01.431,553
2024-04-30T12:12:05,42.805,6.029,CST-1368DR,4090,4215,10918,01.432,553
2024-04-30T12:15:06,42.805,6.029,CST-1368DR,4090,4213,10914,01.433,553
2024-04-30T12:18:08,42.805,6.029,CST-1368DR,4090,4215,10918,01.432,553
2024-04-30T12:21:10,42.805,6.029,CST-1368DR,4090,4214,10917,01.432,553
2024-04-30T12:24:11,42.805,6.029,CST-1368DR,4090,4210,10906,01.436,553
2024-04-30T12:27:13,42.805,6.029,CST-1368DR,4090,4215,10918,01.432,553
2024-04-30T12:30:14,42.805,6.029,CST-1368DR,4090,4216,10921,01.430,553
2024-04-30T12:33:16,42.805,6.029,CST-1368DR,4090,4214,10915,01.433,553
2024-04-30T12:36:18,42.805,6.029,CST-1368DR,4090,4214,10915,01.433,553
2024-04-30T12:39:19,42.805,6.029,CST-1368DR,4090,4213,10915,01.433,553
2024-04-30T12:42:21,42.805,6.029,CST-1368DR,4090,4216,10921,01.430,553
2024-04-30T12:45:22,42.805,6.029,CST-1368DR,4090,4216,10923,01.430,553
2024-04-30T12:48:24,42.805,6.029,CST-1368DR,4090,4214,10916,01.432,553
2024-04-30T12:51:25,42.805,6.029,CST-1368DR,4090,4216,10921,01.430,553
2024-04-30T12:54:27,42.805,6.029,CST-1368DR,4090,4214,10915,01.433,553
2024-04-30T12:57:29,42.805,6.029,CST-1368DR,4090,4217,10924,01.429,553
2024-04-30T13:00:30,42.805,6.029,CST-1368DR,4090,4218,10926,01.429,553
2024-04-30T13:03:32,42.805,6.029,CST-1368DR,4090,4217,10923,01.430,553
2024-04-30T13:06:33,42.805,6.029,CST-1368DR,4090,4219,10929,01.428,553
2024-04-30T13:09:35,42.805,6.029,CST-1368DR,4090,4216,10921,01.430,553
2024-04-30T13:12:36,42.805,6.029,CST-1368DR,4090,4214,10917,01.432,553
2024-04-30T13:15:38,42.805,6.029,CST-1368DR,4090,4215,10919,01.431,553
2024-04-30T13:18:40,42.805,6.029,CST-1368DR,4090,4212,10911,01.434,553
2024-04-30T13:21:41,42.805,6.029,CST-1368DR,4090,4216,10922,01.430,553
2024-04-30T13:24:43,42.805,6.029,CST-1368DR,4090,4214,10915,01.433,553
2024-04-30T13:27:44,42.805,6.029,CST-1368DR,4090,4219,10928,01.428,553
2024-04-30T13:30:46,42.805,6.029,CST-1368DR,4090,4216,10921,01.430,553
2024-04-30T13:33:48,42.805,6.029,CST-1368DR,4090,4213,10914,01.433,553
2024-04-30T13:36:49,42.805,6.029,CST-1368DR,4090,4215,10919,01.431,553
2024-04-30T13:39:51,42.805,6.029,CST-1368DR,4090,4217,10924,01.429,553
2024-04-30T13:42:52,42.805,6.029,CST-1368DR,4090,4217,10923,01.430,553
2024-04-30T13:45:54,42.805,6.029,CST-1368DR,4090,4216,10921,01.430,553
2024-04-30T13:48:55,42.805,6.029,CST-1368DR,4090,4216,10922,01.430,553
2024-04-30T13:51:57,42.805,6.029,CST-1368DR,4090,4216,10921,01.430,553
2024-04-30T13:54:59,42.805,6.029,CST-1368DR,4090,4212,10910,01.434,553
2024-04-30T13:58:00,42.805,6.029,CST-1368DR,4090,4213,10914,01.433,553
2024-04-30T14:01:02,42.805,6.029,CST-1368DR,4090,4213,10913,01.433,553
2024-04-30T14:04:03,42.805,6.029,CST-1368DR,4090,4214,10916,01.432,553
2024-04-30T14:07:05,42.805,6.029,CST-1368DR,4090,4215,10920,01.431,553
2024-04-30T14:10:06,42.805,6.029,CST-1368DR,4090,4214,10917,01.432,553
2024-04-30T14:13:08,42.805,6.029,CST-1368DR,4090,4215,10920,01.431,553
2024-04-30T14:16:10,42.805,6.029,CST-1368DR,4090,4216,10922,01.430,553
2024-04-30T14:19:11,42.805,6.029,CST-1368DR,4090,4214,10917,01.432,553
2024-04-30T14:22:13,42.805,6.029,CST-1368DR,4090,4214,10915,01.433,553
2024-04-30T14:25:14,42.805,6.029,CST-1368DR,4090,4210,10906,01.436,553
2024-04-30T14:28:16,42.805,6.029,CST-1368DR,4090,4216,10921,01.430,553
2024-04-30T14:31:18,42.805,6.029,CST-1368DR,4090,4217,10923,01.430,553
2024-04-30T14:34:19,42.805,6.029,CST-1368DR,4090,4215,10919,01.431,553
2024-04-30T14:37:21,42.805,6.029,CST-1368DR,4090,4219,10928,01.428,553
2024-04-30T14:40:22,42.805,6.029,CST-1368DR,4090,4213,10914,01.433,553
2024-04-30T14:43:24,42.805,6.029,CST-1368DR,4090,4217,10925,01.429,553
2024-04-30T14:46:25,42.805,6.029,CST-1368DR,4090,4215,10919,01.431,553
2024-04-30T14:49:27,42.805,6.029,CST-1368DR,4090,4217,10924,01.429,553
2024-04-30T14:52:29,42.805,6.029,CST-1368DR,4090,4215,10918,01.432,553
2024-04-30T14:55:30,42.805,6.029,CST-1368DR,4090,4214,10916,01.432,553
2024-04-30T14:58:32,42.805,6.029,CST-1368DR,4090,4217,10925,01.429,553
2024-04-30T15:01:33,42.805,6.029,CST-1368DR,4090,4211,10908,01.435,553
2024-04-30T15:04:35,42.805,6.029,CST-1368DR,4090,4210,10906,01.436,553
2024-04-30T15:07:36,42.805,6.029,CST-1368DR,4090,4215,10918,01.432,553
2024-04-30T15:10:38,42.805,6.029,CST-1368DR,4090,4212,10912,01.434,553
2024-04-30T15:13:40,42.805,6.029,CST-1368DR,4090,4212,10911,01.434,553
2024-04-30T15:16:41,42.805,6.029,CST-1368DR,4090,4212,10912,01.434,553
2024-04-30T15:19:43,42.805,6.029,CST-1368DR,4090,4214,10916,01.432,553
2024-04-30T15:22:44,42.805,6.029,CST-1368DR,4090,4209,10903,01.437,553
2024-04-30T15:25:46,42.805,6.029,CST-1368DR,4090,4210,10906,01.436,553
2024-04-30T15:28:48,42.805,6.029,CST-1368DR,4090,4214,10917,01.432,553
2024-04-30T15:31:49,42.805,6.029,CST-1368DR,4090,4212,10911,01.434,553
2024-04-30T15:34:51,42.805,6.029,CST-1368DR,4090,4213,10914,01.433,553
2024-04-30T15:37:52,42.805,6.029,CST-1368DR,4090,4212,10912,01.434,553
2024-04-30T15:40:54,42.805,6.029,CST-1368DR,4090,4214,10917,01.432,553
2024-04-30T15:43:55,42.805,6.029,CST-1368DR,4090,4212,10912,01.434,553
2024-04-30T15:46:57,42.805,6.029,CST-1368DR,4090,4215,10918,01.432,553
2024-04-30T15:49:59,42.805,6.029,CST-1368DR,4090,4213,10914,01.433,553
2024-04-30T15:53:00,42.805,6.029,CST-1368DR,4090,4213,10913,01.433,553
2024-04-30T15:56:02,42.805,6.029,CST-1368DR,4090,4214,10916,01.432,553
2024-04-30T15:59:03,42.805,6.029,CST-1368DR,4090,4212,10912,01.434,553
2024-04-30T16:02:05,42.805,6.029,CST-1368DR,4090,4210,10906,01.436,553
2024-04-30T16:05:06,42.805,6.029,CST-1368DR,4090,4212,10911,01.434,553
2024-04-30T16:08:08,42.805,6.029,CST-1368DR,4090,4210,10907,01.436,553
2024-04-30T16:11:10,42.805,6.029,CST-1368DR,4090,4212,10912,01.434,553
2024-04-30T16:14:11,42.805,6.029,CST-1368DR,4090,4212,10912,01.434,553
2024-04-30T16:17:13,42.805,6.029,CST-1368DR,4090,4215,10918,01.432,553
2024-04-30T16:20:14,42.805,6.029,CST-1368DR,4090,4212,10912,01.434,553
2024-04-30T16:23:16,42.805,6.029,CST-1368DR,4090,4210,10905,01.436,553
2024-04-30T16:26:18,42.805,6.029,CST-1368DR,4090,4210,10906,01.436,553
2024-04-30T16:29:19,42.805,6.029,CST-1368DR,4090,4213,10913,01.433,553
2024-04-30T16:32:21,42.805,6.029,CST-1368DR,4090,4209,10904,01.437,553
2024-04-30T16:35:22,42.805,6.029,CST-1368DR,4089,4206,10899,01.438,553
2024-04-30T16:38:24,42.805,6.029,CST-1368DR,4089,4213,10915,01.433,553